Time,TemperatureF,DewpointF,PressureIn,WindDirection,WindDirectionDegrees,WindSpeedMPH,WindSpeedGustMPH,Humidity,HourlyPrecipIn,Conditions,Clouds,dailyrainin,SoftwareType,DateUTC
2013-06-29 00:01:00,73.0,33.1,29.06,SE,129,0.0,0.0,23,0.00,,CLR,0.00,VWS V14.01,2013-06-29 04:01:00,
2013-06-29 00:06:00,72.9,32.9,29.06,SE,129,0.0,0.0,23,0.00,,CLR,0.00,VWS V14.01,2013-06-29 04:06:00,
2013-06-29 00:11:00,72.7,32.8,29.06,SSE,166,0.0,0.0,23,0.00,,CLR,0.00,VWS V14.01,2013-06-29 04:11:00,
2013-06-29 00:16:00,72.5,33.7,29.06,SSE,166,0.0,0.0,24,0.00,,CLR,0.00,VWS V14.01,2013-06-29 04:16:00,
2013-06-29 00:21:00,72.5,33.7,29.06,SSE,166,0.0,0.0,24,0.00,,CLR,0.00,VWS V14.01,2013-06-29 04:21:00,
2013-06-29 00:26:00,72.1,33.4,29.06,SSE,166,0.0,0.0,24,0.00,,CLR,0.00,VWS V14.01,2013-06-29 04:26:00,
2013-06-29 00:31:00,72.0,33.2,29.06,SSE,166,0.0,0.0,24,0.00,,CLR,0.00,VWS V14.01,2013-06-29 04:31:00,
2013-06-29 00:36:00,71.6,32.9,29.06,SSE,166,0.0,0.0,24,0.00,,CLR,0.00,VWS V14.01,2013-06-29 04:36:00,
2013-06-29 00:41:00,71.4,33.8,29.06,SSE,166,0.0,0.0,25,0.00,,CLR,0.00,VWS V14.01,2013-06-29 04:41:00,
2013-06-29 00:46:00,71.2,34.6,29.06,SSE,166,0.0,0.0,26,0.00,,CLR,0.08,VWS V14.01,2013-06-29 04:46:00,
2013-06-29 00:51:00,71.1,35.4,29.06,SSE,166,0.0,0.0,27,0.00,,CLR,0.00,VWS V14.01,2013-06-29 04:51:00,
2013-06-29 00:56:00,71.1,35.4,29.06,SSE,166,0.0,0.0,27,0.00,,CLR,0.00,VWS V14.01,2013-06-29 04:56:00,
2013-06-29 01:01:00,70.7,36.9,29.06,SSE,166,0.0,0.0,29,0.00,,CLR,0.00,VWS V14.01,2013-06-29 05:01:00,
2013-06-29 01:06:00,70.5,36.8,29.06,SSE,166,0.0,0.0,29,0.00,,,0.00,VWS V14.01,2013-06-29 05:06:00,
2013-06-29 01:11:00,70.3,37.5,29.06,SSE,166,0.0,0.0,30,0.00,,,0.00,VWS V14.01,2013-06-29 05:11:00,
2013-06-29 01:16:00,70.3,37.5,29.06,SSE,166,0.0,0.0,30,0.00,,,0.00,VWS V14.01,2013-06-29 05:16:00,
2013-06-29 01:21:00,70.0,38.8,29.06,SSE,166,0.0,0.0,32,0.00,,,0.00,VWS V14.01,2013-06-29 05:21:00,
2013-06-29 01:26:00,69.8,38.6,29.06,SSE,166,0.0,0.0,32,0.00,,,0.00,VWS V14.01,2013-06-29 05:26:00,
2013-06-29 01:31:00,69.6,39.3,29.06,SSE,166,0.0,0.0,33,0.00,,,0.00,VWS V14.01,2013-06-29 05:31:00,
2013-06-29 01:36:00,69.6,39.3,29.06,SSE,166,0.0,0.0,33,0.00,,,0.08,VWS V14.01,2013-06-29 05:36:00,
2013-06-29 01:41:00,69.4,39.1,29.06,SSE,166,0.0,0.0,33,0.00,,,0.00,VWS V14.01,2013-06-29 05:41:00,
2013-06-29 01:46:00,69.1,39.6,29.06,SSE,166,0.0,0.0,34,0.00,,,0.08,VWS V14.01,2013-06-29 05:46:00,
2013-06-29 01:51:00,69.1,39.6,29.06,SSE,166,0.0,0.0,34,0.00,,,0.08,VWS V14.01,2013-06-29 05:51:00,
2013-06-29 01:56:00,69.1,39.6,29.06,SSE,166,0.0,0.0,34,0.00,,,0.00,VWS V14.01,2013-06-29 05:56:00,
2013-06-29 02:01:00,68.9,39.4,29.06,SSE,166,0.0,0.0,34,0.00,,,0.00,VWS V14.01,2013-06-29 06:01:00,
2013-06-29 02:06:00,68.7,40.0,29.06,SSE,166,0.0,0.0,35,0.00,,,0.00,VWS V14.01,2013-06-29 06:06:00,
2013-06-29 02:11:00,68.7,40.0,29.06,SSE,166,0.0,0.0,35,0.00,,,0.00,VWS V14.01,2013-06-29 06:11:00,
2013-06-29 02:16:00,68.7,40.0,29.06,SSE,166,0.0,0.0,35,0.00,,,0.00,VWS V14.01,2013-06-29 06:16:00,
2013-06-29 02:21:00,68.5,39.8,29.06,SSE,166,0.0,0.0,35,0.00,,,0.00,VWS V14.01,2013-06-29 06:21:00,
2013-06-29 02:26:00,68.5,40.5,29.06,SSE,166,0.0,0.0,36,0.00,,,0.08,VWS V14.01,2013-06-29 06:26:00,
2013-06-29 02:31:00,68.5,40.5,29.06,SSE,166,0.0,0.0,36,0.00,,,0.00,VWS V14.01,2013-06-29 06:31:00,
2013-06-29 02:36:00,68.4,41.1,29.06,SSE,166,0.0,0.0,37,0.00,,,0.00,VWS V14.01,2013-06-29 06:36:00,
2013-06-29 02:41:00,68.4,41.1,29.06,SSE,166,0.0,0.0,37,0.00,,,0.00,VWS V14.01,2013-06-29 06:41:00,
2013-06-29 02:46:00,68.4,41.1,29.06,SSE,166,0.0,0.0,37,0.00,,,0.00,VWS V14.01,2013-06-29 06:46:00,
2013-06-29 02:52:00,68.4,41.1,29.06,SSE,166,0.0,0.0,37,0.00,,,0.00,VWS V14.01,2013-06-29 06:52:00,
2013-06-29 02:57:00,68.2,40.9,29.06,SSE,166,0.0,0.0,37,0.00,,,0.00,VWS V14.01,2013-06-29 06:57:00,
2013-06-29 03:02:00,68.2,40.9,29.06,SSE,166,0.0,0.0,37,0.00,,,0.00,VWS V14.01,2013-06-29 07:02:00,
2013-06-29 03:07:00,68.0,40.8,29.06,SSE,166,0.0,0.0,37,0.00,,,0.00,VWS V14.01,2013-06-29 07:07:00,
2013-06-29 03:12:00,68.0,40.8,29.06,SSE,166,0.0,0.0,37,0.00,,,0.08,VWS V14.01,2013-06-29 07:12:00,
2013-06-29 03:17:00,67.8,41.3,29.06,SSE,166,0.0,0.0,38,0.00,,,0.00,VWS V14.01,2013-06-29 07:17:00,
2013-06-29 03:22:00,67.6,41.2,29.06,SSE,166,0.0,0.0,38,0.00,,,0.08,VWS V14.01,2013-06-29 07:22:00,
2013-06-29 03:27:00,67.6,41.8,29.06,SSE,166,0.0,0.0,39,0.00,,,0.08,VWS V14.01,2013-06-29 07:27:00,
2013-06-29 03:32:00,67.5,41.7,29.06,SSE,166,0.0,0.0,39,0.00,,,0.00,VWS V14.01,2013-06-29 07:32:00,
2013-06-29 03:37:00,67.3,42.2,29.06,SSE,166,0.0,0.0,40,0.00,,,0.08,VWS V14.01,2013-06-29 07:37:00,
2013-06-29 03:42:00,67.1,42.0,29.06,SSE,166,0.0,0.0,40,0.00,,,0.00,VWS V14.01,2013-06-29 07:42:00,
2013-06-29 03:47:00,66.9,42.5,29.06,SSE,166,0.0,0.0,41,0.00,,,0.00,VWS V14.01,2013-06-29 07:47:00,
2013-06-29 03:52:00,66.9,42.5,29.06,SSE,166,0.0,0.0,41,0.00,,,0.08,VWS V14.01,2013-06-29 07:52:00,
2013-06-29 03:57:00,66.9,42.5,29.06,SSE,166,0.0,0.0,41,0.00,,,0.00,VWS V14.01,2013-06-29 07:57:00,
2013-06-29 04:02:00,66.9,42.5,29.06,SSE,166,0.0,0.0,41,0.00,,CLR,0.08,VWS V14.01,2013-06-29 08:02:00,
2013-06-29 04:07:00,66.9,43.7,29.06,SSE,166,0.0,0.0,43,0.00,,CLR,0.00,VWS V14.01,2013-06-29 08:07:00,
2013-06-29 04:12:00,67.1,43.9,29.06,SSE,166,0.0,0.0,43,0.00,,CLR,0.00,VWS V14.01,2013-06-29 08:12:00,
2013-06-29 04:17:00,67.1,43.9,29.06,SSE,166,0.0,0.0,43,0.00,,CLR,0.00,VWS V14.01,2013-06-29 08:17:00,
2013-06-29 04:22:00,67.3,44.0,29.06,SSE,166,0.0,0.0,43,0.00,,CLR,0.00,VWS V14.01,2013-06-29 08:22:00,
2013-06-29 04:27:00,67.3,44.0,29.09,SSE,166,0.0,0.0,43,0.00,,CLR,0.00,VWS V14.01,2013-06-29 08:27:00,
2013-06-29 04:32:00,67.5,44.2,29.09,SSE,166,0.0,0.0,43,0.00,,CLR,0.08,VWS V14.01,2013-06-29 08:32:00,
2013-06-29 04:37:00,67.6,45.0,29.09,SSE,166,0.0,0.0,44,0.00,,CLR,0.08,VWS V14.01,2013-06-29 08:37:00,
2013-06-29 04:42:00,67.6,45.0,29.09,SSE,166,0.0,0.0,44,0.00,,CLR,0.00,VWS V14.01,2013-06-29 08:42:00,
2013-06-29 04:47:00,67.8,45.1,29.09,SSE,166,0.0,0.0,44,0.00,,CLR,0.00,VWS V14.01,2013-06-29 08:47:00,
2013-06-29 04:52:00,67.8,45.1,29.09,SSE,166,0.0,0.0,44,0.00,,CLR,0.00,VWS V14.01,2013-06-29 08:52:00,
2013-06-29 04:57:00,67.8,45.1,29.09,SSE,166,0.0,0.0,44,0.00,,CLR,0.08,VWS V14.01,2013-06-29 08:57:00,
2013-06-29 05:02:00,68.0,44.7,29.09,SSE,166,0.0,0.0,43,0.00,,FEW110,0.00,VWS V14.01,2013-06-29 09:02:00,
2013-06-29 05:07:00,68.0,44.7,29.09,SSE,166,0.0,0.0,43,0.00,,FEW110,0.00,VWS V14.01,2013-06-29 09:07:00,
2013-06-29 05:12:00,68.0,44.7,29.09,SSE,166,0.0,0.0,43,0.00,,FEW110,0.00,VWS V14.01,2013-06-29 09:12:00,
2013-06-29 05:17:00,68.0,44.7,29.09,SSE,166,0.0,0.0,43,0.00,,FEW110,0.00,VWS V14.01,2013-06-29 09:17:00,
2013-06-29 05:22:00,68.0,44.7,29.09,SSE,166,0.0,0.0,43,0.00,,FEW110,0.00,VWS V14.01,2013-06-29 09:22:00,
2013-06-29 05:27:00,68.0,44.7,29.09,SSE,166,0.0,0.0,43,0.00,,FEW110,0.00,VWS V14.01,2013-06-29 09:27:00,
2013-06-29 05:32:00,68.0,44.7,29.09,SSE,166,0.0,0.0,43,0.00,,FEW110,0.00,VWS V14.01,2013-06-29 09:32:00,
2013-06-29 05:37:00,68.0,44.7,29.09,SSE,166,0.0,0.0,43,0.00,,FEW110,0.00,VWS V14.01,2013-06-29 09:37:00,
2013-06-29 05:42:00,68.0,44.7,29.09,SSE,166,0.0,0.0,43,0.00,,BKN015,0.00,VWS V14.01,2013-06-29 09:42:00,
2013-06-29 05:47:00,67.8,44.5,29.09,SSE,166,0.0,0.0,43,0.00,,BKN015,0.00,VWS V14.01,2013-06-29 09:47:00,
2013-06-29 05:52:00,67.8,44.5,29.09,SSE,166,0.0,0.0,43,0.00,,BKN015,0.08,VWS V14.01,2013-06-29 09:52:00,
2013-06-29 05:57:00,67.6,44.4,29.09,SSE,166,0.0,0.0,43,0.00,,BKN015,0.00,VWS V14.01,2013-06-29 09:57:00,
2013-06-29 06:02:00,67.6,44.4,29.09,SSE,166,0.0,0.0,43,0.00,,OVC015,0.00,VWS V14.01,2013-06-29 10:02:00,
2013-06-29 06:07:00,67.5,44.2,29.12,SSE,166,0.0,0.0,43,0.00,,OVC015,0.00,VWS V14.01,2013-06-29 10:07:00,
2013-06-29 06:12:00,67.5,44.8,29.12,SSE,166,0.0,0.0,44,0.00,,OVC015,0.00,VWS V14.01,2013-06-29 10:12:00,
2013-06-29 06:17:00,67.5,44.8,29.12,SSE,166,0.0,0.0,44,0.00,,OVC015,0.00,VWS V14.01,2013-06-29 10:17:00,
2013-06-29 06:22:00,67.5,44.8,29.12,SSE,166,0.0,0.0,44,0.00,,OVC015,0.00,VWS V14.01,2013-06-29 10:22:00,
2013-06-29 06:27:00,67.6,45.6,29.12,SSE,166,0.0,0.0,45,0.00,,OVC015,0.00,VWS V14.01,2013-06-29 10:27:00,
2013-06-29 06:32:00,67.8,45.7,29.12,SSE,166,0.0,0.0,45,0.00,,OVC015,0.00,VWS V14.01,2013-06-29 10:32:00,
2013-06-29 06:37:00,68.0,45.9,29.12,SSE,166,0.0,0.0,45,0.00,,OVC015,0.00,VWS V14.01,2013-06-29 10:37:00,
2013-06-29 06:42:00,68.0,45.9,29.12,SSE,166,0.0,0.0,45,0.00,,OVC015,0.00,VWS V14.01,2013-06-29 10:42:00,
2013-06-29 06:47:00,68.2,46.0,29.12,SSE,166,0.0,0.0,45,0.00,,OVC015,0.00,VWS V14.01,2013-06-29 10:47:00,
2013-06-29 06:52:00,68.5,46.4,29.12,SSE,166,0.0,0.0,45,0.00,,OVC015,0.00,VWS V14.01,2013-06-29 10:52:00,
2013-06-29 06:57:00,68.9,46.7,29.12,SE,139,2.2,2.2,45,0.00,,OVC015,0.00,VWS V14.01,2013-06-29 10:57:00,
2013-06-29 07:02:00,69.1,46.3,29.12,SSE,150,2.7,2.7,44,0.00,,BKN015,0.00,VWS V14.01,2013-06-29 11:02:00,
2013-06-29 07:07:00,69.1,46.3,29.12,SSE,155,0.0,0.0,44,0.00,,BKN015,0.00,VWS V14.01,2013-06-29 11:07:00,
2013-06-29 07:12:00,69.6,45.5,29.12,SSE,155,0.0,0.0,42,0.00,,BKN015,0.00,VWS V14.01,2013-06-29 11:12:00,
2013-06-29 07:17:00,69.6,45.5,29.12,SSE,155,0.0,0.0,42,0.00,,BKN015,0.00,VWS V14.01,2013-06-29 11:17:00,
2013-06-29 07:22:00,69.8,45.1,29.12,SSE,155,0.0,0.0,41,0.00,,BKN015,0.08,VWS V14.01,2013-06-29 11:22:00,
2013-06-29 07:23:00,69.8,45.1,29.12,SSE,155,0.0,0.0,41,0.00,,BKN015,0.00,VWS V14.01,2013-06-29 11:23:00,
2013-06-29 07:28:00,70.0,44.6,29.12,SSE,155,0.0,0.0,40,0.00,,BKN015,0.00,VWS V14.01,2013-06-29 11:28:00,
2013-06-29 07:33:00,70.2,44.7,29.12,SSE,155,2.2,2.2,40,0.00,,BKN015,0.08,VWS V14.01,2013-06-29 11:33:00,
2013-06-29 07:38:00,70.2,43.4,29.12,SSE,155,3.6,3.6,38,0.00,,BKN015,0.00,VWS V14.01,2013-06-29 11:38:00,
2013-06-29 07:43:00,70.3,42.9,29.12,SE,143,0.0,0.0,37,0.00,,BKN015,0.08,VWS V14.01,2013-06-29 11:43:00,
2013-06-29 07:48:00,70.5,42.3,29.12,SE,143,0.0,0.0,36,0.00,,BKN015,0.08,VWS V14.01,2013-06-29 11:48:00,
2013-06-29 07:53:00,70.7,41.7,29.12,SE,142,0.0,4.0,35,0.00,,BKN015,0.00,VWS V14.01,2013-06-29 11:53:00,
2013-06-29 07:58:00,70.7,41.7,29.12,SE,142,0.0,0.0,35,0.00,,BKN015,0.00,VWS V14.01,2013-06-29 11:58:00,
2013-06-29 08:03:00,70.7,40.2,29.12,SSE,152,0.0,0.0,33,0.00,,BKN015,0.00,VWS V14.01,2013-06-29 12:03:00,
2013-06-29 08:08:00,70.7,40.2,29.12,SSE,152,0.0,0.0,33,0.00,,BKN015,0.00,VWS V14.01,2013-06-29 12:08:00,
2013-06-29 08:13:00,70.9,40.4,29.15,SSE,152,0.0,0.0,33,0.00,,BKN015,0.00,VWS V14.01,2013-06-29 12:13:00,
2013-06-29 08:18:00,71.1,40.5,29.15,WNW,298,0.0,0.0,33,0.00,,BKN015,0.00,VWS V14.01,2013-06-29 12:18:00,
2013-06-29 08:23:00,71.1,40.5,29.15,SSW,212,0.0,0.0,33,0.00,,BKN015,0.00,VWS V14.01,2013-06-29 12:23:00,
2013-06-29 08:28:00,71.1,40.5,29.15,SSE,152,0.0,0.0,33,0.00,,BKN015,0.00,VWS V14.01,2013-06-29 12:28:00,
2013-06-29 08:33:00,71.1,40.5,29.15,SSE,152,0.0,0.0,33,0.00,,BKN015,0.00,VWS V14.01,2013-06-29 12:33:00,
2013-06-29 08:38:00,71.2,40.7,29.15,SSE,147,0.0,0.0,33,0.00,,BKN015,0.00,VWS V14.01,2013-06-29 12:38:00,
2013-06-29 08:43:00,71.6,40.2,29.15,SSE,154,0.0,0.0,32,0.00,,BKN015,0.00,VWS V14.01,2013-06-29 12:43:00,
2013-06-29 08:48:00,72.0,40.5,29.15,SSE,151,0.0,0.0,32,0.00,,BKN015,0.08,VWS V14.01,2013-06-29 12:48:00,
2013-06-29 08:53:00,72.3,40.0,29.15,SE,143,0.0,0.0,31,0.00,,BKN015,0.00,VWS V14.01,2013-06-29 12:53:00,
2013-06-29 08:58:00,72.5,40.2,29.15,SE,131,0.0,0.0,31,0.00,,BKN015,0.00,VWS V14.01,2013-06-29 12:58:00,
2013-06-29 09:03:00,72.9,38.8,29.15,South,169,0.0,0.0,29,0.00,,BKN017,0.00,VWS V14.01,2013-06-29 13:03:00,
2013-06-29 09:08:00,73.0,38.9,29.15,SSE,151,3.6,3.6,29,0.00,,BKN017,0.08,VWS V14.01,2013-06-29 13:08:00,
2013-06-29 09:13:00,72.9,36.0,29.15,SSE,150,0.0,0.0,26,0.00,,BKN017,0.00,VWS V14.01,2013-06-29 13:13:00,
2013-06-29 09:18:00,72.9,36.0,29.15,SSE,147,0.0,0.0,26,0.00,,BKN017,0.00,VWS V14.01,2013-06-29 13:18:00,
2013-06-29 09:23:00,73.0,36.2,29.15,SSE,152,0.0,0.0,26,0.00,,BKN017,0.00,VWS V14.01,2013-06-29 13:23:00,
2013-06-29 09:28:00,73.0,36.2,29.15,SE,140,2.7,2.7,26,0.00,,BKN017,0.08,VWS V14.01,2013-06-29 13:28:00,
2013-06-29 09:33:00,73.0,36.2,29.15,ESE,119,3.6,3.6,26,0.00,,BKN017,0.00,VWS V14.01,2013-06-29 13:33:00,
2013-06-29 09:38:00,73.2,36.3,29.15,NE,40,0.0,0.0,26,0.00,,BKN017,0.00,VWS V14.01,2013-06-29 13:38:00,
2013-06-29 09:43:00,73.2,36.3,29.15,SE,138,0.0,0.0,26,0.00,,BKN017,0.00,VWS V14.01,2013-06-29 13:43:00,
2013-06-29 09:48:00,73.4,34.5,29.15,ESE,116,0.0,0.0,24,0.00,,BKN017,0.00,VWS V14.01,2013-06-29 13:48:00,
2013-06-29 09:53:00,73.6,33.5,29.15,ENE,65,0.0,0.0,23,0.00,,BKN017,0.00,VWS V14.01,2013-06-29 13:53:00,
2013-06-29 09:58:00,73.8,33.7,29.15,SE,146,0.0,0.0,23,0.00,,BKN017,0.08,VWS V14.01,2013-06-29 13:58:00,
2013-06-29 10:03:00,73.8,33.7,29.15,SE,125,5.8,5.8,23,0.00,,OVC019,0.00,VWS V14.01,2013-06-29 14:03:00,
2013-06-29 10:08:00,73.8,33.7,29.15,SSE,155,0.0,3.6,23,0.00,,OVC019,0.00,VWS V14.01,2013-06-29 14:08:00,
2013-06-29 10:13:00,74.3,34.1,29.15,SE,130,0.0,0.0,23,0.00,,OVC019,0.00,VWS V14.01,2013-06-29 14:13:00,
2013-06-29 10:18:00,74.5,33.2,29.15,SE,139,3.1,3.1,22,0.00,,OVC019,0.00,VWS V14.01,2013-06-29 14:18:00,
2013-06-29 10:23:00,74.7,33.3,29.15,NNE,12,0.0,0.0,22,0.00,,OVC019,0.00,VWS V14.01,2013-06-29 14:23:00,
2013-06-29 10:28:00,75.2,33.8,29.15,SSE,153,0.0,0.0,22,0.00,,OVC019,0.00,VWS V14.01,2013-06-29 14:28:00,
2013-06-29 10:33:00,75.6,32.9,29.15,SSE,153,0.0,2.7,21,0.00,,OVC019,0.08,VWS V14.01,2013-06-29 14:33:00,
2013-06-29 10:38:00,75.6,32.9,29.15,SSE,151,2.7,2.7,21,0.00,,OVC019,0.00,VWS V14.01,2013-06-29 14:38:00,
2013-06-29 10:43:00,75.6,32.9,29.15,ESE,109,0.0,0.0,21,0.00,,OVC019,0.00,VWS V14.01,2013-06-29 14:43:00,
2013-06-29 10:48:00,75.7,34.2,29.15,SSE,153,0.0,0.0,22,0.00,,OVC019,0.08,VWS V14.01,2013-06-29 14:48:00,
2013-06-29 10:53:00,76.1,33.4,29.15,North,10,0.0,2.2,21,0.00,,OVC019,0.08,VWS V14.01,2013-06-29 14:53:00,
2013-06-29 10:58:00,76.8,34.0,29.15,SE,138,3.1,3.6,21,0.00,,OVC019,0.08,VWS V14.01,2013-06-29 14:58:00,
2013-06-29 11:03:00,77.5,33.3,29.15,South,172,2.7,2.7,20,0.00,,BKN035,0.08,VWS V14.01,2013-06-29 15:03:00,
2013-06-29 11:09:00,77.2,33.0,29.15,SE,138,0.0,0.0,20,0.00,,BKN035,0.00,VWS V14.01,2013-06-29 15:09:00,
2013-06-29 11:13:00,77.2,33.0,29.15,SE,141,0.0,3.6,20,0.00,,BKN035,0.00,VWS V14.01,2013-06-29 15:13:00,
2013-06-29 11:19:00,77.2,33.0,29.15,SE,134,0.0,0.0,20,0.00,,BKN035,0.08,VWS V14.01,2013-06-29 15:19:00,
2013-06-29 11:24:00,77.0,32.9,29.15,SSE,147,0.0,0.0,20,0.00,,SCT026,0.00,VWS V14.01,2013-06-29 15:24:00,
2013-06-29 11:29:00,77.0,32.9,29.15,ENE,71,4.0,4.0,20,0.00,,SCT026,0.00,VWS V14.01,2013-06-29 15:29:00,
2013-06-29 11:34:00,78.6,31.6,29.15,East,91,0.0,0.0,18,0.00,,BKN026,0.00,VWS V14.01,2013-06-29 15:34:00,
2013-06-29 11:39:00,79.3,27.7,29.15,SSE,154,5.8,5.8,15,0.00,,BKN026,0.08,VWS V14.01,2013-06-29 15:39:00,
2013-06-29 11:44:00,80.1,31.4,29.15,SSE,168,2.7,2.7,17,0.00,,FEW026,0.00,VWS V14.01,2013-06-29 15:44:00,
2013-06-29 11:49:00,81.0,27.3,29.15,ESE,120,4.9,4.9,14,0.00,,FEW026,0.00,VWS V14.01,2013-06-29 15:49:00,
2013-06-29 11:54:00,81.3,27.6,29.15,SSE,151,0.0,2.2,14,0.00,,FEW026,0.08,VWS V14.01,2013-06-29 15:54:00,
2013-06-29 11:59:00,81.9,28.0,29.15,ESE,109,2.7,2.7,14,0.00,,FEW026,0.00,VWS V14.01,2013-06-29 15:59:00,
2013-06-29 12:04:00,82.0,28.2,29.15,SE,125,4.0,4.0,14,0.00,,FEW031,0.00,VWS V14.01,2013-06-29 16:04:00,
2013-06-29 12:09:00,82.4,28.5,29.15,North,353,3.1,3.1,14,0.00,,FEW031,0.00,VWS V14.01,2013-06-29 16:09:00,
2013-06-29 12:14:00,83.3,29.2,29.15,SE,143,2.2,4.0,14,0.00,,FEW031,0.08,VWS V14.01,2013-06-29 16:14:00,
2013-06-29 12:19:00,83.3,29.2,29.15,SE,128,0.0,0.0,14,0.00,,FEW031,0.00,VWS V14.01,2013-06-29 16:19:00,
2013-06-29 12:24:00,83.1,29.0,29.15,ESE,116,0.0,0.0,14,0.00,,FEW031,0.00,VWS V14.01,2013-06-29 16:24:00,
2013-06-29 12:29:00,84.0,29.8,29.15,North,6,2.7,2.7,14,0.00,,FEW031,0.00,VWS V14.01,2013-06-29 16:29:00,
2013-06-29 12:34:00,84.0,29.8,29.15,SE,126,3.6,5.8,14,0.00,,FEW031,0.00,VWS V14.01,2013-06-29 16:34:00,
2013-06-29 12:39:00,84.0,29.8,29.15,ESE,104,2.7,2.7,14,0.00,,FEW031,0.00,VWS V14.01,2013-06-29 16:39:00,
2013-06-29 12:44:00,83.8,29.6,29.15,SE,136,0.0,2.7,14,0.00,,FEW031,0.00,VWS V14.01,2013-06-29 16:44:00,
2013-06-29 12:49:00,83.7,29.5,29.15,SSE,168,4.0,4.0,14,0.00,,FEW031,0.00,VWS V14.01,2013-06-29 16:49:00,
2013-06-29 12:54:00,83.7,29.5,29.15,SSE,147,2.2,2.7,14,0.00,,FEW031,0.00,VWS V14.01,2013-06-29 16:54:00,
2013-06-29 12:59:00,84.0,29.8,29.15,NNW,345,0.0,3.1,14,0.00,,FEW031,0.00,VWS V14.01,2013-06-29 16:59:00,
2013-06-29 13:04:00,84.0,29.8,29.15,SSE,147,4.0,4.0,14,0.00,,FEW038,0.08,VWS V14.01,2013-06-29 17:04:00,
2013-06-29 13:09:00,83.8,29.6,29.15,ESE,111,3.1,3.1,14,0.00,,FEW038,0.00,VWS V14.01,2013-06-29 17:09:00,
2013-06-29 13:14:00,83.8,29.6,29.15,SE,142,2.2,2.2,14,0.00,,FEW038,0.00,VWS V14.01,2013-06-29 17:14:00,
2013-06-29 13:19:00,84.0,29.8,29.15,SE,136,2.2,2.7,14,0.00,,FEW038,0.00,VWS V14.01,2013-06-29 17:19:00,
2013-06-29 13:38:00,84.4,28.2,29.15,ESE,109,3.6,5.4,13,0.00,,FEW038,0.08,VWS V14.01,2013-06-29 17:38:00,
2013-06-29 13:45:00,84.2,28.1,29.15,NNW,342,0.0,0.0,13,0.00,,FEW038,0.00,VWS V14.01,2013-06-29 17:45:00,
2013-06-29 13:58:00,84.7,28.5,29.15,ESE,114,3.1,3.1,13,0.00,,FEW038,0.00,VWS V14.01,2013-06-29 17:58:00,
2013-06-29 14:03:00,84.7,28.5,29.15,ESE,116,2.2,5.8,13,0.00,,FEW038,0.08,VWS V14.01,2013-06-29 18:03:00,
2013-06-29 14:08:00,84.2,28.1,29.15,South,172,4.0,4.0,13,0.00,,FEW038,0.00,VWS V14.01,2013-06-29 18:08:00,
2013-06-29 14:13:00,83.7,29.5,29.15,SE,140,0.0,0.0,14,0.00,,FEW047,0.08,VWS V14.01,2013-06-29 18:13:00,
2013-06-29 14:18:00,83.3,23.4,29.15,ESE,119,0.0,3.1,11,0.00,,FEW047,0.00,VWS V14.01,2013-06-29 18:18:00,
2013-06-29 14:23:00,83.3,29.2,29.15,ESE,107,6.3,6.3,14,0.00,,FEW047,0.00,VWS V14.01,2013-06-29 18:23:00,
2013-06-29 14:28:00,83.5,23.5,29.15,ENE,68,4.0,4.0,11,0.00,,FEW047,0.08,VWS V14.01,2013-06-29 18:28:00,
2013-06-29 14:33:00,84.2,24.0,29.15,NE,44,0.0,0.0,11,0.00,,FEW047,0.08,VWS V14.01,2013-06-29 18:33:00,
2013-06-29 14:38:00,84.2,24.0,29.15,NNW,341,0.0,0.0,11,0.00,,FEW047,0.08,VWS V14.01,2013-06-29 18:38:00,
2013-06-29 14:43:00,84.0,23.9,29.15,ESE,107,0.0,2.7,11,0.00,,FEW047,0.00,VWS V14.01,2013-06-29 18:43:00,
2013-06-29 14:48:00,83.7,23.6,29.15,SSE,154,2.2,3.6,11,0.00,,FEW047,0.00,VWS V14.01,2013-06-29 18:48:00,
2013-06-29 14:53:00,83.8,23.8,29.15,East,81,0.0,0.0,11,0.00,,FEW047,0.00,VWS V14.01,2013-06-29 18:53:00,
2013-06-29 14:58:00,84.2,28.1,29.15,East,81,2.7,2.7,13,0.00,,FEW047,0.00,VWS V14.01,2013-06-29 18:58:00,
2013-06-29 15:03:00,84.4,24.2,29.15,SE,125,0.0,0.0,11,0.00,,BKN055,0.00,VWS V14.01,2013-06-29 19:03:00,
2013-06-29 15:08:00,84.4,24.2,29.15,South,187,0.0,0.0,11,0.00,,BKN055,0.00,VWS V14.01,2013-06-29 19:08:00,
2013-06-29 15:13:00,84.4,24.2,29.15,NNW,338,2.7,2.7,11,0.00,,BKN055,0.08,VWS V14.01,2013-06-29 19:13:00,
2013-06-29 15:18:00,84.4,24.2,29.15,SSE,154,3.1,3.1,11,0.00,,BKN055,0.00,VWS V14.01,2013-06-29 19:18:00,
2013-06-29 15:23:00,83.8,23.8,29.15,NE,56,2.7,2.7,11,0.00,,BKN055,0.00,VWS V14.01,2013-06-29 19:23:00,
2013-06-29 15:28:00,83.7,23.6,29.15,NE,37,3.6,3.6,11,0.00,,BKN055,0.08,VWS V14.01,2013-06-29 19:28:00,
2013-06-29 15:33:00,83.7,23.6,29.15,SE,136,0.0,0.0,11,0.00,,BKN055,0.00,VWS V14.01,2013-06-29 19:33:00,
2013-06-29 15:38:00,83.8,23.8,29.15,ESE,115,0.0,0.0,11,0.00,,BKN055,0.08,VWS V14.01,2013-06-29 19:38:00,
2013-06-29 15:43:00,84.2,24.0,29.15,ENE,78,0.0,0.0,11,0.00,,BKN055,0.00,VWS V14.01,2013-06-29 19:43:00,
2013-06-29 15:49:00,84.0,23.9,29.15,SE,142,3.1,3.1,11,0.00,,BKN055,0.08,VWS V14.01,2013-06-29 19:49:00,
2013-06-29 15:54:00,84.2,24.0,29.15,SE,128,2.7,2.7,11,0.00,,BKN055,0.00,VWS V14.01,2013-06-29 19:54:00,
2013-06-29 15:58:00,83.7,23.6,29.15,SE,135,2.7,3.6,11,0.00,,BKN055,0.00,VWS V14.01,2013-06-29 19:58:00,
2013-06-29 16:04:00,83.7,23.6,29.15,ESE,116,0.0,0.0,11,0.00,,FEW050,0.00,VWS V14.01,2013-06-29 20:04:00,
2013-06-29 16:08:00,84.0,23.9,29.15,ESE,113,2.2,2.2,11,0.00,,FEW050,0.00,VWS V14.01,2013-06-29 20:08:00,
2013-06-29 16:13:00,84.4,24.2,29.15,SE,145,3.6,3.6,11,0.00,,FEW050,0.00,VWS V14.01,2013-06-29 20:13:00,
2013-06-29 16:19:00,84.6,24.3,29.15,NE,54,0.0,0.0,11,0.00,,FEW050,0.00,VWS V14.01,2013-06-29 20:19:00,
2013-06-29 16:24:00,84.6,24.3,29.18,North,8,0.0,0.0,11,0.00,,FEW050,0.00,VWS V14.01,2013-06-29 20:24:00,
2013-06-29 16:29:00,84.6,24.3,29.18,WSW,239,7.2,7.2,11,0.00,,FEW050,0.00,VWS V14.01,2013-06-29 20:29:00,
2013-06-29 16:34:00,84.6,24.3,29.18,ESE,123,6.3,6.3,11,0.00,,FEW050,0.00,VWS V14.01,2013-06-29 20:34:00,
2013-06-29 16:39:00,84.6,24.3,29.18,SE,133,3.6,3.6,11,0.00,,FEW050,0.00,VWS V14.01,2013-06-29 20:39:00,
2013-06-29 16:44:00,84.6,24.3,29.18,SSE,155,7.6,7.6,11,0.00,,FEW050,0.08,VWS V14.01,2013-06-29 20:44:00,
2013-06-29 16:49:00,84.6,24.3,29.18,ENE,65,0.0,0.0,11,0.00,,FEW050,0.00,VWS V14.01,2013-06-29 20:49:00,
2013-06-29 16:54:00,84.6,24.3,29.18,NNE,16,2.2,2.2,11,0.00,,FEW050,0.08,VWS V14.01,2013-06-29 20:54:00,
2013-06-29 16:59:00,84.6,24.3,29.18,ESE,109,4.9,4.9,11,0.00,,FEW050,0.00,VWS V14.01,2013-06-29 20:59:00,
2013-06-29 17:04:00,84.4,24.2,29.18,SSE,155,4.9,4.9,11,0.00,,CLR,0.08,VWS V14.01,2013-06-29 21:04:00,
2013-06-29 17:09:00,84.0,23.9,29.18,SE,126,0.0,0.0,11,0.00,,CLR,0.08,VWS V14.01,2013-06-29 21:09:00,
2013-06-29 17:14:00,83.8,23.8,29.18,ENE,61,2.2,2.2,11,0.00,,CLR,0.00,VWS V14.01,2013-06-29 21:14:00,
2013-06-29 17:19:00,83.7,23.6,29.18,SE,127,3.1,3.1,11,0.00,,CLR,0.00,VWS V14.01,2013-06-29 21:19:00,
2013-06-29 17:24:00,84.0,23.9,29.18,NNE,31,0.0,0.0,11,0.00,,CLR,0.00,VWS V14.01,2013-06-29 21:24:00,
2013-06-29 17:29:00,84.2,24.0,29.18,SE,135,3.6,8.1,11,0.00,,CLR,0.00,VWS V14.01,2013-06-29 21:29:00,
2013-06-29 17:34:00,84.2,24.0,29.18,North,8,0.0,0.0,11,0.00,,CLR,0.00,VWS V14.01,2013-06-29 21:34:00,
2013-06-29 17:39:00,84.2,24.0,29.18,ESE,123,3.6,3.6,11,0.00,,CLR,0.08,VWS V14.01,2013-06-29 21:39:00,
2013-06-29 17:44:00,84.2,24.0,29.18,SE,141,4.9,4.9,11,0.00,,CLR,0.08,VWS V14.01,2013-06-29 21:44:00,
2013-06-29 17:49:00,83.8,23.8,29.18,ESE,111,5.8,5.8,11,0.00,,CLR,0.00,VWS V14.01,2013-06-29 21:49:00,
2013-06-29 17:54:00,83.5,23.5,29.18,ESE,117,0.0,0.0,11,0.00,,CLR,0.00,VWS V14.01,2013-06-29 21:54:00,
2013-06-29 17:59:00,82.8,23.0,29.18,SE,142,2.7,2.7,11,0.00,,CLR,0.00,VWS V14.01,2013-06-29 21:59:00,
2013-06-29 18:04:00,82.4,22.7,29.18,SSE,149,3.1,3.1,11,0.00,,CLR,0.00,VWS V14.01,2013-06-29 22:04:00,
2013-06-29 18:09:00,82.2,24.6,29.18,SSE,147,0.0,0.0,12,0.00,,CLR,0.00,VWS V14.01,2013-06-29 22:09:00,
2013-06-29 18:14:00,82.2,24.6,29.18,SE,135,0.0,0.0,12,0.00,,CLR,0.00,VWS V14.01,2013-06-29 22:14:00,
2013-06-29 18:19:00,81.9,24.3,29.18,SSE,160,0.0,0.0,12,0.00,,CLR,0.08,VWS V14.01,2013-06-29 22:19:00,
2013-06-29 18:24:00,81.9,24.3,29.18,SE,125,2.7,2.7,12,0.00,,CLR,0.08,VWS V14.01,2013-06-29 22:24:00,
2013-06-29 18:29:00,81.9,24.3,29.18,SSE,152,0.0,0.0,12,0.00,,CLR,0.00,VWS V14.01,2013-06-29 22:29:00,
2013-06-29 18:34:00,81.9,24.3,29.18,SSE,156,0.0,0.0,12,0.00,,CLR,0.08,VWS V14.01,2013-06-29 22:34:00,
2013-06-29 18:39:00,81.7,24.2,29.18,SE,143,0.0,0.0,12,0.00,,CLR,0.08,VWS V14.01,2013-06-29 22:39:00,
2013-06-29 18:44:00,81.5,24.0,29.18,SSE,149,2.7,2.7,12,0.00,,CLR,0.08,VWS V14.01,2013-06-29 22:44:00,
2013-06-29 18:49:00,81.5,24.0,29.18,SE,132,0.0,0.0,12,0.00,,CLR,0.00,VWS V14.01,2013-06-29 22:49:00,
2013-06-29 18:54:00,81.5,27.8,29.18,SSE,151,2.7,2.7,14,0.00,,CLR,0.08,VWS V14.01,2013-06-29 22:54:00,
2013-06-29 18:59:00,81.0,27.3,29.18,SSE,154,2.7,2.7,14,0.00,,CLR,0.00,VWS V14.01,2013-06-29 22:59:00,
2013-06-29 19:04:00,81.0,27.3,29.18,SSE,150,0.0,0.0,14,0.00,,CLR,0.00,VWS V14.01,2013-06-29 23:04:00,
2013-06-29 19:09:00,80.8,27.2,29.18,SE,146,0.0,0.0,14,0.00,,CLR,0.00,VWS V14.01,2013-06-29 23:09:00,
2013-06-29 19:14:00,80.8,27.2,29.18,SSE,149,0.0,0.0,14,0.00,,CLR,0.00,VWS V14.01,2013-06-29 23:14:00,
2013-06-29 19:19:00,80.6,27.0,29.18,SSE,149,0.0,0.0,14,0.00,,CLR,0.00,VWS V14.01,2013-06-29 23:19:00,
2013-06-29 19:24:00,80.2,28.4,29.18,SSE,149,0.0,0.0,15,0.00,,CLR,0.00,VWS V14.01,2013-06-29 23:24:00,
2013-06-29 19:29:00,80.1,28.3,29.18,SSE,149,0.0,0.0,15,0.00,,CLR,0.00,VWS V14.01,2013-06-29 23:29:00,
2013-06-29 19:34:00,79.7,28.0,29.18,SSE,149,0.0,0.0,15,0.00,,CLR,0.00,VWS V14.01,2013-06-29 23:34:00,
2013-06-29 19:39:00,79.5,27.9,29.18,SSE,149,0.0,0.0,15,0.00,,CLR,0.00,VWS V14.01,2013-06-29 23:39:00,
2013-06-29 19:44:00,79.0,27.4,29.18,SSE,149,0.0,0.0,15,0.00,,CLR,0.00,VWS V14.01,2013-06-29 23:44:00,
2013-06-29 19:49:00,78.4,27.0,29.18,SSE,149,0.0,0.0,15,0.00,,CLR,0.00,VWS V14.01,2013-06-29 23:49:00,
2013-06-29 19:54:00,78.1,26.7,29.21,SSE,149,0.0,0.0,15,0.00,,CLR,0.00,VWS V14.01,2013-06-29 23:54:00,
2013-06-29 19:59:00,77.5,30.7,29.21,SSE,149,0.0,0.0,18,0.00,,CLR,0.00,VWS V14.01,2013-06-29 23:59:00,
2013-06-29 20:04:00,77.5,30.7,29.21,SSE,149,0.0,0.0,18,0.00,,CLR,0.00,VWS V14.01,2013-06-30 00:04:00,
2013-06-29 20:09:00,76.6,32.6,29.21,SSE,149,0.0,0.0,20,0.00,,CLR,0.00,VWS V14.01,2013-06-30 00:09:00,
2013-06-29 20:14:00,76.1,32.2,29.21,SSE,149,0.0,0.0,20,0.00,,CLR,0.08,VWS V14.01,2013-06-30 00:14:00,
2013-06-29 20:19:00,75.6,32.9,29.21,SSE,149,0.0,0.0,21,0.00,,CLR,0.00,VWS V14.01,2013-06-30 00:19:00,
2013-06-29 20:24:00,75.4,33.9,29.21,SSE,149,0.0,0.0,22,0.00,,CLR,0.00,VWS V14.01,2013-06-30 00:24:00,
2013-06-29 20:29:00,75.0,33.6,29.21,SSE,149,0.0,0.0,22,0.00,,CLR,0.08,VWS V14.01,2013-06-30 00:29:00,
2013-06-29 20:34:00,74.3,34.1,29.21,SSE,149,0.0,0.0,23,0.00,,CLR,0.00,VWS V14.01,2013-06-30 00:34:00,
2013-06-29 20:39:00,73.9,34.9,29.21,SSE,149,0.0,0.0,24,0.00,,CLR,0.00,VWS V14.01,2013-06-30 00:39:00,
2013-06-29 20:44:00,73.8,35.8,29.21,SSE,149,0.0,0.0,25,0.00,,CLR,0.00,VWS V14.01,2013-06-30 00:44:00,
2013-06-29 20:49:00,73.4,35.5,29.21,SSE,149,0.0,0.0,25,0.00,,CLR,0.00,VWS V14.01,2013-06-30 00:49:00,
2013-06-29 20:54:00,73.0,36.2,29.21,SSE,149,0.0,0.0,26,0.00,,CLR,0.00,VWS V14.01,2013-06-30 00:54:00,
2013-06-29 20:59:00,73.0,36.2,29.21,SSE,149,0.0,0.0,26,0.00,,CLR,0.08,VWS V14.01,2013-06-30 00:59:00,
2013-06-29 21:04:00,72.7,36.8,29.21,SSE,149,0.0,0.0,27,0.00,,CLR,0.00,VWS V14.01,2013-06-30 01:04:00,
2013-06-29 21:09:00,72.3,37.4,29.23,SSE,149,0.0,0.0,28,0.00,,CLR,0.00,VWS V14.01,2013-06-30 01:09:00,
2013-06-29 21:14:00,72.1,37.3,29.23,SSE,149,0.0,0.0,28,0.00,,CLR,0.08,VWS V14.01,2013-06-30 01:14:00,
2013-06-29 21:19:00,72.0,38.0,29.23,SSE,149,0.0,0.0,29,0.00,,CLR,0.00,VWS V14.01,2013-06-30 01:19:00,
2013-06-29 21:24:00,71.8,38.7,29.23,SSE,149,0.0,0.0,30,0.00,,CLR,0.00,VWS V14.01,2013-06-30 01:24:00,
2013-06-29 21:29:00,71.6,39.4,29.23,SSE,149,0.0,0.0,31,0.00,,CLR,0.00,VWS V14.01,2013-06-30 01:29:00,
2013-06-29 21:34:00,71.6,39.4,29.23,SSE,149,0.0,0.0,31,0.00,,CLR,0.00,VWS V14.01,2013-06-30 01:34:00,
2013-06-29 21:39:00,71.2,39.9,29.23,SSE,149,0.0,0.0,32,0.00,,CLR,0.00,VWS V14.01,2013-06-30 01:39:00,
2013-06-29 21:44:00,71.1,39.7,29.23,SSE,149,0.0,0.0,32,0.00,,CLR,0.00,VWS V14.01,2013-06-30 01:44:00,
2013-06-29 21:49:00,70.9,39.6,29.23,SSE,149,0.0,0.0,32,0.00,,CLR,0.00,VWS V14.01,2013-06-30 01:49:00,
2013-06-29 21:54:00,70.7,39.4,29.23,SSE,149,0.0,0.0,32,0.00,,CLR,0.00,VWS V14.01,2013-06-30 01:54:00,
2013-06-29 21:59:00,70.5,40.1,29.23,SSE,149,0.0,0.0,33,0.00,,CLR,0.00,VWS V14.01,2013-06-30 01:59:00,
2013-06-29 22:04:00,70.5,40.1,29.23,SSE,149,0.0,0.0,33,0.00,,FEW060,0.00,VWS V14.01,2013-06-30 02:04:00,
2013-06-29 22:09:00,70.3,39.9,29.23,SSE,149,0.0,0.0,33,0.00,,FEW060,0.00,VWS V14.01,2013-06-30 02:09:00,
2013-06-29 22:14:00,70.3,40.7,29.23,SSE,149,0.0,0.0,34,0.00,,FEW060,0.00,VWS V14.01,2013-06-30 02:14:00,
2013-06-29 22:19:00,70.2,40.5,29.23,SSE,149,0.0,0.0,34,0.00,,FEW060,0.00,VWS V14.01,2013-06-30 02:19:00,
2013-06-29 22:24:00,70.0,40.3,29.23,SSE,149,0.0,0.0,34,0.00,,FEW060,0.00,VWS V14.01,2013-06-30 02:24:00,
2013-06-29 22:29:00,70.0,40.3,29.23,SSE,149,0.0,0.0,34,0.00,,FEW060,0.00,VWS V14.01,2013-06-30 02:29:00,
2013-06-29 22:34:00,69.8,40.2,29.23,SSE,149,0.0,0.0,34,0.00,,FEW060,0.00,VWS V14.01,2013-06-30 02:34:00,
2013-06-29 22:39:00,69.8,40.2,29.23,SSE,149,0.0,0.0,34,0.00,,FEW060,0.00,VWS V14.01,2013-06-30 02:39:00,
2013-06-29 22:44:00,69.6,40.0,29.23,SSE,149,0.0,0.0,34,0.00,,FEW060,0.00,VWS V14.01,2013-06-30 02:44:00,
2013-06-29 22:49:00,69.6,40.0,29.23,SSE,149,0.0,0.0,34,0.00,,FEW060,0.00,VWS V14.01,2013-06-30 02:49:00,
2013-06-29 22:54:00,69.4,40.6,29.23,SSE,149,0.0,0.0,35,0.00,,FEW060,0.00,VWS V14.01,2013-06-30 02:54:00,
2013-06-29 22:59:00,69.3,40.5,29.23,SSE,149,0.0,0.0,35,0.00,,FEW060,0.08,VWS V14.01,2013-06-30 02:59:00,
2013-06-29 23:05:00,69.3,40.5,29.23,SSE,149,0.0,0.0,35,0.00,,FEW060,0.00,VWS V14.01,2013-06-30 03:05:00,
2013-06-29 23:10:00,69.1,40.3,29.23,SSE,149,0.0,0.0,35,0.00,,FEW060,0.00,VWS V14.01,2013-06-30 03:10:00,
2013-06-29 23:15:00,68.9,40.2,29.23,SSE,149,0.0,0.0,35,0.00,,FEW060,0.00,VWS V14.01,2013-06-30 03:15:00,
2013-06-29 23:20:00,68.9,40.9,29.23,SSE,149,3.1,3.1,36,0.00,,FEW060,0.08,VWS V14.01,2013-06-30 03:20:00,
2013-06-29 23:25:00,68.7,40.7,29.26,SSE,149,0.0,0.0,36,0.00,,FEW060,0.00,VWS V14.01,2013-06-30 03:25:00,
2013-06-29 23:30:00,68.5,40.5,29.26,SSE,149,0.0,0.0,36,0.00,,FEW060,0.00,VWS V14.01,2013-06-30 03:30:00,
2013-06-29 23:35:00,68.5,40.5,29.26,SSE,149,0.0,0.0,36,0.00,,FEW060,0.08,VWS V14.01,2013-06-30 03:35:00,
2013-06-29 23:40:00,68.4,40.4,29.26,SSE,149,0.0,0.0,36,0.00,,FEW060,0.08,VWS V14.01,2013-06-30 03:40:00,
2013-06-29 23:45:00,68.4,41.1,29.26,SSE,149,0.0,0.0,37,0.00,,FEW060,0.00,VWS V14.01,2013-06-30 03:45:00,
2013-06-29 23:50:00,68.2,40.9,29.26,SSE,149,0.0,0.0,37,0.00,,FEW060,0.08,VWS V14.01,2013-06-30 03:50:00,
2013-06-29 23:55:00,68.2,40.9,29.26,SSE,149,0.0,0.0,37,0.00,,FEW060,0.08,VWS V14.01,2013-06-30 03:55:00,